Previsão horária em Ploskoe

Hoje, 5 Março, Sexta-feira

Tempo Temperatura Precipitação Vento Pressão Humidade
00:00 -5°C° 0 mm 3 m/s 741 mmHg 83%
01:00 -5°C° 0 mm 3 m/s 742 mmHg 85%
02:00 -6°C° 0 mm 3 m/s 742 mmHg 86%
03:00 -5°C° 0 mm 2 m/s 742 mmHg 86%
04:00 -6°C° 0 mm 2 m/s 743 mmHg 87%
05:00 -6°C° 0 mm 2 m/s 743 mmHg 87%
06:00 -6°C° 0 mm 2 m/s 743 mmHg 86%
07:00 -6°C° 0 mm 2 m/s 743 mmHg 84%
08:00 -6°C° 0 mm 2 m/s 744 mmHg 82%
09:00 -5°C° 0 mm 3 m/s 744 mmHg 78%
10:00 -4°C° 0 mm 3 m/s 744 mmHg 74%
11:00 -3°C° 0 mm 4 m/s 744 mmHg 71%
12:00 -3°C° 0 mm 4 m/s 745 mmHg 67%
13:00 -3°C° 0 mm 4 m/s 745 mmHg 64%
14:00 -2°C° 0 mm 5 m/s 745 mmHg 60%
15:00 -3°C° 0 mm 4 m/s 746 mmHg 60%
16:00 -3°C° 0 mm 4 m/s 746 mmHg 60%
17:00 -4°C° 0 mm 3 m/s 746 mmHg 59%
18:00 -5°C° 0 mm 3 m/s 747 mmHg 61%
19:00 -5°C° 0 mm 2 m/s 747 mmHg 64%
20:00 -5°C° 0 mm 2 m/s 748 mmHg 66%
21:00 -6°C° 0 mm 2 m/s 748 mmHg 66%
22:00 -6°C° 0 mm 2 m/s 748 mmHg 67%
23:00 -6°C° 0 mm 2 m/s 749 mmHg 68%

Amanhã, 6 Março, Sábado

Tempo Temperatura Precipitação Vento Pressão Humidade
00:00 -6°C° 0 mm 2 m/s 749 mmHg 68%
01:00 -5°C° 0 mm 2 m/s 749 mmHg 68%
02:00 -5°C° 0 mm 2 m/s 749 mmHg 68%
03:00 -5°C° 0 mm 2 m/s 749 mmHg 74%
04:00 -6°C° 0 mm 3 m/s 749 mmHg 79%
05:00 -6°C° 0 mm 3 m/s 749 mmHg 85%
06:00 -6°C° 0 mm 3 m/s 749 mmHg 87%
07:00 -7°C° 0 mm 3 m/s 750 mmHg 88%
08:00 -8°C° 0 mm 4 m/s 750 mmHg 90%
09:00 -7°C° 0 mm 4 m/s 750 mmHg 83%
10:00 -5°C° 0 mm 4 m/s 751 mmHg 76%
11:00 -4°C° 0 mm 4 m/s 751 mmHg 69%
12:00 -4°C° 0 mm 4 m/s 751 mmHg 65%
13:00 -3°C° 0 mm 4 m/s 751 mmHg 60%
14:00 -3°C° 0 mm 4 m/s 751 mmHg 55%
15:00 -3°C° 0 mm 4 m/s 751 mmHg 57%
16:00 -4°C° 0 mm 4 m/s 751 mmHg 59%
17:00 -4°C° 0 mm 4 m/s 750 mmHg 61%
18:00 -5°C° 0 mm 4 m/s 750 mmHg 63%
19:00 -5°C° 0 mm 4 m/s 750 mmHg 66%
20:00 -7°C° 0 mm 4 m/s 750 mmHg 68%
21:00 -6°C° 0 mm 5 m/s 749 mmHg 69%
22:00 -6°C° 0 mm 5 m/s 748 mmHg 70%
23:00 -6°C° 0 mm 5 m/s 748 mmHg 71%

Depois de amanhã, 7 Março, Domingo

Tempo Temperatura Precipitação Vento Pressão Humidade
00:00 -6°C° 0 mm 6 m/s 747 mmHg 71%
01:00 -6°C° 0 mm 7 m/s 746 mmHg 70%
02:00 -6°C° 0 mm 8 m/s 745 mmHg 70%
03:00 -6°C° 0 mm 8 m/s 744 mmHg 75%
04:00 -6°C° 0 mm 8 m/s 742 mmHg 80%
05:00 -5°C° 0 mm 9 m/s 741 mmHg 85%
06:00 -5°C° 0.1 mm 9 m/s 741 mmHg 85%
07:00 -5°C° 0.1 mm 9 m/s 740 mmHg 86%
08:00 -4°C° 0.1 mm 10 m/s 740 mmHg 86%
09:00 -4°C° 0.3 mm 9 m/s 740 mmHg 88%
10:00 -4°C° 0.3 mm 9 m/s 740 mmHg 90%
11:00 -4°C° 0.3 mm 8 m/s 740 mmHg 91%
12:00 -4°C° 0.5 mm 8 m/s 740 mmHg 91%
13:00 -3°C° 0.5 mm 7 m/s 740 mmHg 91%
14:00 -3°C° 0.5 mm 6 m/s 740 mmHg 92%
15:00 -3°C° 0.3 mm 6 m/s 739 mmHg 92%
16:00 -3°C° 0.3 mm 6 m/s 739 mmHg 92%
17:00 -3°C° 0.3 mm 7 m/s 739 mmHg 93%
18:00 -4°C° 0.2 mm 6 m/s 739 mmHg 90%
19:00 -4°C° 0.2 mm 6 m/s 739 mmHg 86%
20:00 -5°C° 0.2 mm 5 m/s 739 mmHg 83%
21:00 -5°C° 0 mm 5 m/s 739 mmHg 81%
22:00 -6°C° 0 mm 5 m/s 739 mmHg 79%
23:00 -5°C° 0 mm 4 m/s 739 mmHg 76%

8 Março, Segunda-feira

Tempo Temperatura Precipitação Vento Pressão Humidade
00:00 -7°C° 0 mm 4 m/s 739 mmHg 76%
01:00 -7°C° 0 mm 4 m/s 739 mmHg 76%
02:00 -7°C° 0 mm 4 m/s 740 mmHg 76%
03:00 -7°C° 0 mm 4 m/s 740 mmHg 77%
04:00 -8°C° 0 mm 4 m/s 740 mmHg 79%
05:00 -8°C° 0 mm 4 m/s 740 mmHg 80%
06:00 -8°C° 0 mm 4 m/s 740 mmHg 82%
07:00 -7°C° 0 mm 3 m/s 741 mmHg 83%
08:00 -7°C° 0 mm 3 m/s 741 mmHg 84%
09:00 -7°C° 0 mm 3 m/s 742 mmHg 79%
10:00 -6°C° 0 mm 3 m/s 742 mmHg 74%
11:00 -5°C° 0 mm 2 m/s 743 mmHg 68%
12:00 -4°C° 0 mm 2 m/s 743 mmHg 66%
13:00 -5°C° 0 mm 3 m/s 743 mmHg 64%
14:00 -5°C° 0 mm 3 m/s 744 mmHg 61%
15:00 -5°C° 0 mm 3 m/s 744 mmHg 63%
16:00 -5°C° 0 mm 2 m/s 744 mmHg 64%
17:00 -5°C° 0 mm 2 m/s 744 mmHg 65%
18:00 -5°C° 0 mm 2 m/s 744 mmHg 68%
19:00 -6°C° 0 mm 2 m/s 745 mmHg 70%
20:00 -7°C° 0 mm 2 m/s 745 mmHg 73%
21:00 -7°C° 0 mm 2 m/s 746 mmHg 75%
22:00 -7°C° 0 mm 2 m/s 746 mmHg 78%
23:00 -8°C° 0 mm 2 m/s 747 mmHg 81%

9 Março, Terça-feira

Tempo Temperatura Precipitação Vento Pressão Humidade
00:00 -9°C° 0 mm 3 m/s 747 mmHg 81%
01:00 -9°C° 0 mm 3 m/s 747 mmHg 82%
02:00 -10°C° 0 mm 4 m/s 747 mmHg 82%
03:00 -9°C° 0 mm 3 m/s 748 mmHg 82%
04:00 -10°C° 0 mm 3 m/s 748 mmHg 82%
05:00 -12°C° 0 mm 3 m/s 748 mmHg 82%
06:00 -12°C° 0 mm 3 m/s 749 mmHg 82%
07:00 -12°C° 0 mm 3 m/s 749 mmHg 81%
08:00 -12°C° 0 mm 4 m/s 750 mmHg 80%
09:00 -11°C° 0 mm 4 m/s 750 mmHg 76%
10:00 -11°C° 0 mm 4 m/s 751 mmHg 71%
11:00 -11°C° 0 mm 4 m/s 751 mmHg 67%
12:00 -10°C° 0 mm 4 m/s 752 mmHg 65%
13:00 -10°C° 0 mm 4 m/s 752 mmHg 63%
14:00 -9°C° 0 mm 4 m/s 752 mmHg 61%
15:00 -8°C° 0 mm 3 m/s 752 mmHg 61%
16:00 -9°C° 0 mm 3 m/s 753 mmHg 62%
17:00 -9°C° 0 mm 3 m/s 753 mmHg 62%
18:00 -9°C° 0 mm 3 m/s 753 mmHg 66%
19:00 -9°C° 0 mm 2 m/s 754 mmHg 69%
20:00 -9°C° 0 mm 2 m/s 754 mmHg 73%
21:00 -10°C° 0 mm 2 m/s 755 mmHg 74%
22:00 -10°C° 0 mm 2 m/s 755 mmHg 74%
23:00 -9°C° 0 mm 1 m/s 755 mmHg 75%

10 Março, Quarta-feira

Tempo Temperatura Precipitação Vento Pressão Humidade
00:00 -9°C° 0 mm 1 m/s 755 mmHg 75%
01:00 -10°C° 0 mm 1 m/s 756 mmHg 75%
02:00 -10°C° 0 mm 0 m/s 756 mmHg 75%
03:00 -10°C° 0 mm 1 m/s 756 mmHg 76%
04:00 -10°C° 0 mm 1 m/s 756 mmHg 77%
05:00 -12°C° 0 mm 2 m/s 755 mmHg 79%
06:00 -12°C° 0 mm 2 m/s 756 mmHg 78%
07:00 -12°C° 0 mm 2 m/s 756 mmHg 77%
08:00 -10°C° 0 mm 2 m/s 756 mmHg 76%
09:00 -10°C° 0 mm 3 m/s 756 mmHg 70%
10:00 -9°C° 0 mm 3 m/s 756 mmHg 65%
11:00 -9°C° 0 mm 4 m/s 756 mmHg 60%
12:00 -8°C° 0 mm 4 m/s 755 mmHg 59%
13:00 -7°C° 0 mm 4 m/s 755 mmHg 57%
14:00 -7°C° 0 mm 5 m/s 755 mmHg 55%
15:00 -7°C° 0 mm 4 m/s 754 mmHg 57%
16:00 -7°C° 0 mm 4 m/s 754 mmHg 59%
17:00 -7°C° 0 mm 4 m/s 753 mmHg 61%
18:00 -8°C° 0 mm 4 m/s 753 mmHg 63%
19:00 -8°C° 0 mm 4 m/s 753 mmHg 65%
20:00 -9°C° 0 mm 4 m/s 753 mmHg 67%
21:00 -9°C° 0 mm 4 m/s 752 mmHg 66%
22:00 -9°C° 0 mm 4 m/s 752 mmHg 65%
23:00 -9°C° 0 mm 4 m/s 752 mmHg 64%
Mostrar mais

Necessitamos do seu Consentimento

A Meteoprog e os seus Fornecedores de Serviços podem armazenar e aceder a dados pessoais como cookies, identificadores do dispositivo ou outras tecnologias semelhantes existentes no seu dispositivo e processar estes dados para personalizar conteúdos e anúncios, assim como funcionalidades nas redes sociais e análise de tráfego.

  • Armazenar e/ou aceder a informações no seu dispositivo

    Os cookies, identificadores do dispositivo ou outras informações podem ser armazenados ou acedidos no seu dispositivo, para os fins acima indicados.

  • Anúncios e conteúdos personalizados, medição de anúncios e conteúdos, dados sobre o público-alvo e desenvolvimento de produtos

    Os anúncios e os conteúdos podem ser personalizados com base num perfil. Podem ser adicionados dados adicionais para uma maior personalização dos anúncios e dos conteúdos. A eficácia dos anúncios e dos conteúdos pode ser medida. Podem ser obtidas informações sobre o público que visualizou os anúncios e os conteúdos. Estes dados podem ser usados para desenvolver ou melhorar sistemas, softwares ou a experiência do utilizador.

Ao clicar em "Eu concordo”, permitirá o uso de cookies, identificadores do dispositivo e web beacons mencionados ou outras tecnologias semelhantes. As configurações do navegador do seu dispositivo podem ser alteradas.

Para certos fins, podem ser invocados interesses legítimos ao invés de consentimento. Pode ler mais informação sobre este assunto na nossa Política de Privacidade e Cookies.